Location: Linz
(48.3300°N, 14.3000°E)
Time: 15:56:44
(UTC+01:00)

Vanguard 3 - All Passes

Search period start: 22 February 2018 00:00
Search period end: 04 March 2018 00:00
Orbit: 508 x 3264 km, 33.3° (Epoch: 21 February)

Date Brightness Start Highest point End Pass type
(mag) Time Alt. Az. Time Alt. Az. Time Alt. Az.
23 Feb - 15:42:27 10° SSW 15:43:39 11° S 15:44:46 10° SSE daylight
24 Feb - 14:28:30 10° SSW 14:30:26 12° S 14:32:10 10° SSE daylight
24 Feb - 16:40:39 10° SSW 16:41:05 10° S 16:41:30 10° S daylight
25 Feb - 13:14:55 10° S 13:17:02 11° S 13:18:55 10° SSE daylight
25 Feb - 15:25:34 10° SSW 15:27:59 13° S 15:30:04 10° SSE daylight
26 Feb - 14:11:06 10° SSW 14:14:45 15° S 14:17:40 10° SE daylight
26 Feb - 16:24:08 10° SSW 16:25:22 11° SSW 16:26:32 10° S daylight
27 Feb - 12:56:43 10° SSW 13:01:18 16° S 13:04:51 10° SE daylight
27 Feb - 15:08:54 10° SW 15:12:18 15° S 15:15:02 10° SSE daylight
28 Feb - 11:42:43 10° SSW 11:47:34 14° SSE 11:51:25 10° SE daylight
28 Feb - 13:53:59 10° SW 13:59:02 19° S 14:02:46 10° SE daylight
28 Feb - 16:07:47 10° SW 16:09:37 12° SSW 16:11:17 10° S daylight
01 Mar - 10:29:55 10° S 10:33:32 12° SSE 10:36:41 10° SE daylight
01 Mar - 12:39:03 10° SW 12:45:30 20° S 12:50:06 10° SE daylight
01 Mar - 14:52:13 10° SW 14:56:35 18° SSW 14:59:53 10° SSE daylight
02 Mar - 11:24:21 10° SSW 11:31:39 19° SSE 11:36:56 10° SE daylight
02 Mar - 13:36:53 10° SW 13:43:17 22° S 13:47:42 10° SE daylight
02 Mar - 15:51:25 10° SW 15:53:51 13° SSW 15:55:57 10° S daylight
03 Mar - 10:10:18 10° S 10:17:28 16° SSE 10:23:00 10° SE daylight
03 Mar - 12:21:30 10° SW 12:29:38 24° S 12:35:05 10° SE daylight
03 Mar - 14:35:29 10° WSW 14:40:48 20° SSW 14:44:39 10° SSE daylight
